Location: ????
(55.5675°N, 37.6272°E)
Time: 15:08:41
(UTC+00:00)

CSL-04 Rocket - Pass Details

Date: 14 April 2026
Orbit: 804 x 858 km, 98.7° (Epoch: 16 May)

Event Time Altitude Azimuth Distance (km) Brightness Sun altitude
Rises 17:01:05 0° 165° (SSE) 3,415 6.5 -4.5°
Reaches altitude 10° 17:03:27 10° 167° (SSE) 2,487 5.8 -4.8°
Maximum altitude 17:09:00 79° 254° (WSW) 881 4.0 -5.5°
Drops below altitude 10° 17:14:36 10° 342° (NNW) 2,506 6.9 -6.2°
Sets 17:16:59 0° 344° (NNW) 3,444 7.6 -6.5°
